Погода Шауляй

Поиск расширенной информации на нашем сайте:

Полезная информация:

Новости сайта



02.01.2020
Опубликован Долгосрочный прогноз погоды по городам России и ближнего зарубежья на январь 2020 года.
Карты: Прогноз на январь и февраль 2020 года, Сравнение прогнозируемой аномалии приземной температуры воздуха на январь 2020 года по разным моделям.




Погода Шауляй - сегодня

Время (UTC), дата Ветер
(°,м/с) 
Видим.   Явления Облачность Т
(°С)
Тd
(°С)
f(%) Тe
(°С)
Pmin
(гПа)
dP
(гПа)
Po
(мм)
O2
(г/м3)
Тmin Tmax R s Состояние
почвы
12 26.02.20 220 (ЮЗ) 4-9{10}  20000 м    9/9 1320 м кучево-дожд. 
[Cb cap]
+4.8 +0.3 73 +3  989  0.8  732  290           
15 26.02.20 210 (ЮЗ) 4-7{11}  19000 м    1/1 1000 м 
[Sc]
+5.4 -0.5 66 +4  989.4  0.4  732  289           
18 26.02.20 180 (Ю) 3-4{08}  16000 м    ясно 
+2.5 -1.9 73 +1  990.6  1.1  733  293    +6.1       
21 26.02.20 200 (Ю) 2-4{06}  20000 м    8/0 верхняя 
[Ci sp]
+1.7 -1.1 82 +1  990.9  0.2  733  294           
00 27.02.20 190 (Ю) 2-4{06}  20000 м    6/6 600 м 
[Sc]
+0.9 -0.7 89 991.5  0.6  734  295           
03 27.02.20 210 (ЮЗ) 3-6{06}  20000 м    10/10 480 м 
[Sc]
+0.5 -0.7 92 -1  991.5  734  295           
06 27.02.20 210 (ЮЗ) 4-8{09}  20000 м  слаб. ливневой дождь со снегом  10/10 570 м кучево-дожд. 
[Cb cap]
+1.1 -1.1 85 -1  991.3  -0.2  734  295  +0.2    0.0    замёрзшая 
09 27.02.20 230 (ЮЗ) 6-10{11}  20000 м  в посл. час ливневой дождь  9/9 600 м кучево-дожд. 
[Cb cap]
+2.1 -0.8 81 -1  991.8  0.6  734  294           
12 27.02.20 230 (ЮЗ) 4-8{13}  19000 м  слаб. ливневой дождь  9/9 270 м кучево-дожд. 
[Cb cap]
+1.5 +0.8 95 -1  991.5  -0.4  734  294       
15 27.02.20 250 (З) 5-11{12}  19000 м  слаб. ливневой дождь со снегом  10/10 570 м кучево-дожд. 
[Cb cap]
+1.6 -0.4 87 -1  992.6  1.1  735  294           
18 27.02.20 240 (ЮЗ) 6-10{12}  20000 м  слаб. ливневой дождь со снегом  10/10 450 м кучево-дожд. 
[Cb cap]
+0.8 -1.3 86 -3  993  0.4  735  295    +2.4     
21 27.02.20 240 (ЮЗ) 5-8{12}  5000 м  дождь со снегом{ливн. осадки}  10/10 210 м 
[Frnb|Ns]
+0.4 -0.4 94 -3  993.2  0.2  735  296           
00 28.02.20 250 (З) 5-8{10}  14000 м  слаб. дождь со снегом{ливн. осадки}  10/10 210 м 
[Frnb|Ns]
+0.5 +0.1 97 -2  995  1.6  736  296       
03 28.02.20 280 (З) 3-6{08}  9000 м  слаб. дождь со снегом  10/10 240 м 
[Frnb|Ns]
+0.5 +0.1 97 -1  996.8  1.9  738  297           
06 28.02.20 290 (З) 3-4{07}  19000 м  в посл. час ливневой снег  8/4 840 м верхняя 
[Sc|Ci sp]
+0.2 -0.6 94 -2  998.8  739  298  +0.1    равномерный
мокрый или
старый снег
100% 
09 28.02.20 330 (СЗ) 3-4{05}  19000 м  слаб. ливневой дождь со снегом  10/10 270 м кучево-дожд. 
[Cb cap]
+0.4 -0.6 93 -1  1001.6  2.7  741  298           
12 28.02.20 290 (З) 3-6{07}  20000 м  {ливн. осадки}  10/10 400 м 
[Sc]
+1.4 -0.9 85 1003.3  1.8  743  298      0.8   
15 28.02.20 280 (З) 2-4{06}  20000 м  {ливн. осадки}  8/8 1500 м 
[Sc]
+1.5 -1.3 82 +1  1005.1  1.7  744  298           
18 28.02.20 240 (ЮЗ) 2-4{05}  17000 м  {ливн. осадки}  8/8 870 м 
[Sc]
+0.6 -1 89 1006.1  745  299    +2.4  0.8     
21 28.02.20 240 (ЮЗ) 2-5{06}  20000 м    6/6 1500 м 
[Sc]
+0 -1.1 92 -1  1006.6  0.5  745  300           
00 29.02.20 240 (ЮЗ) 1-3{05}  18000 м    ясно 
-0.9 -1.7 94 1006.9  0.2  745  301           
03 29.02.20 270 (З) 1-3{05}  0800 м  туман [диам. изморози 0 мм]  ?/?  
-1.5 -1.8 98 -1  1007.3  0.4  745  302           
06 29.02.20 220 (ЮЗ) 1-3{06}  15000 м  {туман} [диам. изморози 0 мм]  10/10 210 м 
[St]
-0.9 -1.1 99 1007.1  -0.2  745  301  -1.6        замёрзшая 
09 29.02.20 210 (ЮЗ) 3-5{06}  19000 м    9/9 840 м 
[Sc]
+2.6 -0.5 80 +1  1006.2  -0.7  745  297           
12 29.02.20 200 (Ю) 4-6{08}  20000 м    10/10 540 м 
[Sc]
+3.5 +0.2 79 +2  1005.3  -0.9  744  296           
Время (UTC), дата Ветер
(°,м/с) 
Видим.   Явления Облачность Т
(°С)
Тd
(°С)
f(%) Тe
(°С)
Pmin
(гПа)
dP
(гПа)
Po
(мм)
O2
(г/м3)
Тmin Tmax R s Состояние
почвы

Для получения пояснительной информации подведите курсор к названию столбца.

ПОГОДА Шауляй - архив

Всё, что Вы хотите узнать о погоде Шауляй - удобно и подробно!

Выберите нужную дату (начиная с 1 января 2019* года) и нажмите кнопку "Найти".
Будут отображены архивные сводки погоды по пункту Шауляй, начиная с указанной даты.


Отображать данные в формате CSV (для использования в таблицах Excel)


Внимание! Наш архив погоды предназначен исключительно для личного некоммерческого использования в познавательных целях. Если Вам необходимы официальные справки о состоянии погоды (для производственных, юридических, коммерческих и т.п. целей), обращайтесь в органы Росгидромета.

*Примечание: данная дата относится к архиву по метеостанциям СССР (Россия, СНГ, Балтия).
Архив по метеостанциям Зарубежной Европы и Азии (кроме Китая) хранится 10 дней, по другим регионам земного шара (Китай, Африка, Америка, Австралия, Океания) - 1 день.

Шауляй - район местоположения метеостанции


Название, широта, долгота, высота метеостанции:
Шауляй 55.9°ш. 23.3°д. 107 м над ур. моря [Литва]

Дополнительная информация

В oтличие oт бoльшинства пoгoдных сайтoв мы публикуем пoдрoбную метеoинфoрмацию в детальнoм прoфессиoнальнoм фoрмате.

Характеристики температуры и влажнoсти вoздуха измеряются на высoте 2 м в тени вдали oт зданий и деревьев.
Скoрoсть ветра измеряется на высoте 10 м (на урoвне рoста челoвека скoрoсть ветра ниже в 1.5-2 раза). Если метеoстанция нахoдится в гoрoде или в лесу, тo скoрoсть ветра занижена на 2-4 м/с пo сравнению с oткрытым местoм. Скoрoсть ветра над акватoриями крупных рек и oзёр, а также на вершинах хoлмoв на 2-5 м/с выше, чем в oбычных услoвиях.
Атмoсфернoе давление в разных тoчках местнoсти мoжет значительнo oтличаться oт давления на метеoстанции, в зависимoсти oт услoвий рельефа (при пoдъёме на 10 м давление пoнижается примернo на 1 мм рт.ст.).